www.pogodaiklimat.ru

Погода и климат >> Архив погоды >> Корея >> Сеонгсан


ПОГОДА на Сеонгсане

  • Прогноз погоды на Сеонгсане
  • Монитор погоды на Сеонгсане

АРХИВ ПОГОДЫ на Сеонгсане

Время (UTC), дата Ветер
(напр.,м/с)
 
Видим.   Явления Облачность Т
(С)
Тd
(С)
f
(%)
Тe
(С)
Тes
(С)
Комфортность P
(гПа)
Po
(гПа)
Тmin
(С)
Tmax
(С)
R
(мм)
R24
(мм)
S
(см)
06 12.06 В 4 20 км 6/6 600 м
[]
+22.0 +15.5 67 +26 +32 душно 1011.1 1008.8
09 12.06 Ю 1 19 км 8/0
[]
+20.7 +15.0 70 +25 +26 комфорт 1010.7 1008.3
12 12.06 С 1 9000 м 8/0
[]
+17.9 +15.5 86 +19 +19 1011.4 1009.0 +23.3
15 12.06 С 3 3800 м 5/0
[]
+16.4 +14.7 90 +16 +16 1011.5 1009.1
18 12.06 С 1 4800 м 1/0
[]
+15.9 +14.2 90 +17 +17 1010.9 1008.5
21 12.06 С 1 3800 м ясно +16.7 +15.0 90 +18 +18 1011.4 1009.0
00 13.06 В 4 20 км 6/6 600 м
[]
+21.2 +15.7 71 +24 +27 комфорт 1011.7 1009.3 +15.5
03 13.06 16 км н/о +21.2 +15.9 72 +25 +27 комфорт 1011.7 1009.3
06 13.06 ЮВ 4 20 км 8/8 300 м
[]
+21.6 +16.5 73 +25 +26 комфорт 1009.5 1007.2
09 13.06 ЮВ 5 13 км 9/5 300 м
[]
+21.3 +17.5 79 +25 +25 комфорт 1009.1 1006.7
12 13.06 ЮВ 2 11 км 8/8 200 м
[]
+20.5 +18.4 88 +25 +25 комфорт 1009.5 1007.1 +22.5
15 13.06 С 1 9000 м 10/10 200 м
[]
+20.5 +18.7 89 +25 +25 комфорт 1009.1 1006.7
18 13.06 СВ 2 4400 м ?/? +20.3 +18.9 92 +25 +25 комфорт 1006.9 1004.5
21 13.06 В 2 10 км 10// 600 м
[]
+20.0 +18.9 93 +24 +24 комфорт 1006.4 1004.0
00 14.06 В 2 8000 м ?/? +20.3 +19.1 93 +25 +25 комфорт 1006.4 1004.0 +19.9 9
03 14.06 В 3 7000 м 10/4 200 м
[]
+20.7 +19.3 92 +25 +31 комфорт 1004.9 1002.6
06 14.06 В 4 9000 м 9/9 300 м
[]
+19.6 +17.9 90 +22 +23 комфорт 1003.4 1001.1
09 14.06 СВ 5 5000 м 10/8 200 м
[]
+18.5 +17.1 92 +19 +19 1002.4 1000.0
12 14.06 С 5 8000 м ?/? +17.4 +15.9 91 +17 +17 1002.7 1000.3 +21.0 8
15 14.06 С 5 4500 м 10/8 600 м
[]
+17.9 +16.4 91 +17 +17 1002.1 999.7
18 14.06 5000 м 8/4 600 м
[]
+18.2 +16.5 90 1001.2 998.8 1
21 14.06 С 4 6000 м 8/5 1000 м
[]
+19.0 +15.6 81 +20 +20 1001.4 999.1
00 15.06 С 13 20 км 3/0
[]
+20.9 +15.2 70 +23 +23 комфорт 1002.2 999.9 +17.9 1
03 15.06 С 8 20 км 1/0
[]
+22.8 +13.5 56 +26 +30 жарко 1002.1 999.8
06 15.06 С 6 19 км 3/0
[]
+22.9 +15.7 64 +27 +32 душно 1000.9 998.6
09 15.06 С 6 19 км ясно +21.2 +15.5 70 +24 +25 комфорт 1001.2 998.9
12 15.06 С 9 12 км 4/0
[]
+19.0 +15.0 78 +19 +19 1003.2 1000.9 +23.9 0.0
15 15.06 С 6 14 км ясно +18.5 +14.3 77 +19 +19 1004.6 1002.2
18 15.06 С 4 20 км 1/0
[]
+18.6 +12.7 69 +19 +19 1004.7 1002.3
21 15.06 С 5 16 км 4/0
[]
+18.7 +14.3 76 +19 +19 1005.7 1003.3
00 16.06 С 9 20 км ясно +21.7 +15.0 66 +25 +26 комфорт 1007.3 1005.0 +18.0 0.0
03 16.06 20 км 8/0
[]
+23.4 +12.6 51 1008.0 1005.7
06 16.06 С 6 20 км 9/6
[]
+23.7 +12.3 49 +26 +27 жарко 1008.6 1006.3
09 16.06 20 км н/о +22.2 +13.2 57 +25 +25 комфорт 1009.0 1006.7
12 16.06 С 4 20 км 8/0
[]
+19.6 +12.1 62 +21 +21 комфорт 1010.8 1008.4
15 16.06 С 3 20 км 8/0
[]
+17.1 +12.4 74 +17 +17 1012.2 1009.8
18 16.06 СЗ 2 20 км 6/0
[]
+18.2 +14.8 81 +19 +19 1012.1 1009.7
21 16.06 С 1 13 км 10/1 300 м
[]
+17.8 +15.4 86 +19 +19 1013.2 1010.8
00 17.06 ЮЗ 2 20 км 8/1 300 м
[]
+21.7 +17.2 76 +26 +32 душно 1014.1 1011.7
03 17.06 Ю 3 20 км 5/0
[]
+23.7 +18.1 71 +28 +41 душно 1014.2 1011.9
06 17.06 ЮЗ 5 20 км 4/0
[]
+23.2 +17.6 71 +29 +35 душно 1013.0 1010.7
09 17.06 ЮЗ 2 16 км 8/0
[]
+21.7 +18.0 79 +26 +28 душно 1012.7 1010.3
12 17.06 З 2 8000 м 8/0
[]
+20.2 +18.1 88 +24 +24 комфорт 1013.8 1011.4 +24.1
15 17.06 З 4 10 км 10/0
[]
+19.7 +17.1 85 +22 +22 комфорт 1013.4 1011.0
18 17.06 штиль 0 20 км ?/? +19.4 +15.6 79 +21 +21 комфорт 1012.9 1010.5
21 17.06 З 1 10 км 10/4
[]
+19.7 +16.7 83 +23 +23 комфорт 1012.6 1010.2
00 18.06 штиль 0 7000 м ?/? +20.9 +16.9 78 +24 +24 комфорт 1013.3 1010.9 +19.0
03 18.06 ЮВ 2 9000 м 10// 1000 м
[]
+21.0 +18.5 86 +26 +37 душно 1013.0 1010.6
06 18.06 Ю 2 6000 м ?/? +21.9 +18.6 82 +27 +34 душно 1011.3 1009.0 1
09 18.06 ЮЗ 4 6000 м 10/10 300 м
[]
+20.7 +17.8 83 +25 +25 комфорт 1010.4 1008.0
12 18.06 Ю 4 8000 м 8/8 300 м
[]
+20.2 +17.5 84 +23 +23 комфорт 1010.9 1008.5 +22.8 1
15 18.06 ЮЗ 3 9000 м 10// 300 м
[]
+19.8 +17.5 87 +23 +23 комфорт 1010.0 1007.6
18 18.06 ЮЗ 2 8000 м 8/8 200 м
[]
+19.7 +18.3 92 +23 +23 комфорт 1007.9 1005.6
21 18.06 10 км н/о +19.1 +17.4 90 +22 +22 комфорт 1007.5 1005.1
00 19.06 В 7 17 км 9/9 300 м
[]
+21.7 +17.8 78 +26 +26 душно 1007.6 1005.3 +18.9 0.0
03 19.06 18 км н/о +23.9 +17.3 67 +28 +30 душно 1007.1 1004.8

 

Местоположение метеостанции Сеонгсан (Корея): широта 33.39 долгота 126.88 высота над уровнем моря 19 м.

В архиве по умолчанию представлена погода на Сеонгсане за последнюю неделю. Архивные данные за месяц целиком и за предыдущие месяцы, начиная с января 2011 года, Вы можете получить, выбрав интересующий диапазон дат из раскрывающегося списка и нажав кнопку "Ввод!".


*Определитесь, кто Вы:
робот инопланетянин человек

Внимание! Время в таблицах - всемирное. Для получения местного времени необходимо прибавить поправку, которая равна 9 ч.

Смотрите также архив погоды в соседних городах и на ближайших метеорологических станциях:

Погода в Согвипхо (Корея) (34 км)
Погода на Чеджудо (Корея) (36 км)
Погода на Ёнпхёндо (Корея) (61 км)
Погода в Уондо (Корея) (114 км)
Погода на Радаре Jindo (Корея) (130 км)
Погода в Мокпхо (Корея) (166 км)
Погода в Йосу (Корея) (169 км)
Погода в Сунчхоне (Корея) (190 км)
Погода в Хыксандо (Корея) (195 км)
Погода на Фукуэ (Япония) (197 км)

Пояснения к столбцам:

Ветер - указаны скорость ветра в м/с - средняя за 10 мин, порывы в срок и между сроками (в фигурных скобках) и направление, откуда дует ветер: С - северный, СВ - северо-восточный, В - восточный, ЮВ - юго-восточный, Ю - южный, ЮЗ - юго-западный, З - западный, СЗ - северо-западный.
Видимость - горизонтальная дальность видимости в метрах или километрах. При видимости от 1 до 10 км при отсутствии осадков обычно наблюдается дымка, при ухудшении видимости до 1 км и менее - туман. В сухую погоду видимость может ухудшаться дымом, пылью или мглою.
Явления - указаны атмосферные явления, наблюдавшиеся в срок или в последний час перед сроком; фигурными скобками обозначены явления, наблюдавшиеся между сроками (за 1-3 часа до срока); квадратными скобками обозначены град или гололедные отложения с указанием их диаметра в мм.
Облачность - указаны через наклонную черту общая и нижняя облачность в баллах и высота нижней границы облаков в метрах; квадратными скобками обозначены формы облаков: Ci - перистые, Cs - перисто-слоистые, Cc - перисто-кучевые, Ac - высококучевые, As - высокослоистые, Sc - слоисто-кучевые, Ns - слоисто-дождевые, Cu - кучевые, Cb - кучево-дождевые. Подробнее классификацию облаков см. в Атласе облаков (PDF).
T - Температура воздуха - температура, измеренная на высоте 2 м над землей.
Td - Температура точки росы - температура, при понижении до которой содержащийся в воздухе водяной пар достигнет насыщения.
f - Относительная влажность воздуха - влажноcть воздуха, измеренная на высоте 2 м над землей.
Te - Эффективная температура - температура, которую ощущает одетый по сезону человек в тени. Характеристика душности погоды. При расчете учитывается влияние влажности воздуха и скорости ветра на теплоощущения человека.
Tes - Эффективная температура на солнце - температура, которую ощущает человек, с поправкой на солнечный нагрев. Характеристика знойности погоды. Зависит от высоты солнца над горизонтом, облачности и скорости ветра. Ночью, в пасмурную погоду, а также при ветре 12 м/с и более поправка равна нулю.
P - Атмосферное давление - приведенное к уровню моря атмосферное давление.
Po - Атмосферное давление - измеренное на уровне метеостанции атмосферное давление.
Tmin - Минимальная температура - минимум температуры воздуха на высоте 2 м над землей.
Tmax - Максимальная температура - максимум температуры воздуха на высоте 2 м над землей.
R - Количество осадков - Количество выпавших осадков за период времени, мм. При наведении курсора мыши на число - период времени, за который выпало указанное количество осадков.
R24 - Количество осадков - Количество выпавших осадков за 24 часа, мм.
S - Снежный покров - Высота снежного покрова, см. При наведении курсора мыши на число - состояние снежного покрова и степень покрытия местности в баллах.